.
WxDataArchive / Data Records for 2006-01-07
2006-01-06 January 2006 2006-01-08

Data Records for Saturday, 07 January 2006

Time	Temp	Chill	HIndex	Humid	Dewpt	 Wind 	HiWind	WindDir	Rain 	Barom 
-----	----	-----	------	-----	-----	------	------	-------	-----	----- 
00:00	29.0	24.6	29.0	72	21.1	4	14	248	0.00	29.894 
00:05	29.0	24.6	29.0	72	21.1	4	9	270	0.00	29.894 
00:10	29.0	29.0	29.0	72	21.1	3	7	248	0.00	29.894 
00:15	29.0	24.6	29.0	73	21.4	4	10	248	0.00	29.882 
00:20	29.0	24.6	29.0	73	21.4	4	11	248	0.00	29.882 
00:25	29.0	22.7	29.0	73	21.4	6	13	248	0.00	29.882 
00:30	29.0	24.6	29.0	73	21.4	4	9	248	0.00	29.873 
00:35	29.0	23.6	29.0	73	21.4	5	11	248	0.00	29.873 
00:40	29.0	24.6	29.0	73	21.4	4	9	248	0.00	29.873 
00:45	29.0	24.6	29.0	73	21.4	4	8	248	0.00	29.876 
00:50	29.0	29.0	29.0	73	21.4	3	9	248	0.00	29.876 
00:55	29.0	24.6	29.0	73	21.4	4	9	248	0.00	29.876 
01:00	29.0	24.6	29.0	73	21.4	4	11	248	0.00	29.874 
01:05	29.0	29.0	29.0	74	21.8	3	9	248	0.00	29.874 
01:10	29.0	24.6	29.0	74	21.8	4	11	248	0.00	29.874 
01:15	29.0	29.0	29.0	74	21.8	3	7	248	0.00	29.861 
01:20	29.0	24.6	29.0	74	21.8	4	10	270	0.00	29.861 
01:25	29.0	23.6	29.0	75	22.1	5	9	248	0.00	29.861 
01:30	29.1	23.7	29.1	75	22.2	5	13	248	0.00	29.846 
01:35	29.1	23.7	29.1	75	22.2	5	12	248	0.00	29.846 
01:40	29.1	23.7	29.1	75	22.2	5	9	248	0.00	29.846 
01:45	29.1	24.7	29.1	76	22.5	4	8	248	0.00	29.839 
01:50	29.1	24.7	29.1	76	22.5	4	10	248	0.00	29.839 
01:55	29.1	24.7	29.1	76	22.5	4	10	248	0.00	29.839 
02:00	29.3	25.0	29.3	76	22.7	4	9	248	0.00	29.830 
02:05	29.3	23.9	29.3	76	22.7	5	12	248	0.00	29.830 
02:10	29.3	23.9	29.3	76	22.7	5	15	248	0.00	29.830 
02:15	29.3	23.0	29.3	76	22.7	6	13	248	0.00	29.833 
02:20	29.3	23.0	29.3	76	22.7	6	13	248	0.00	29.833 
02:25	29.4	23.1	29.4	76	22.8	6	13	248	0.00	29.833 
02:30	29.4	25.1	29.4	76	22.8	4	10	248	0.00	29.828 
02:35	29.4	25.1	29.4	76	22.8	4	13	248	0.00	29.828 
02:40	29.4	25.1	29.4	76	22.8	4	14	248	0.00	29.828 
02:45	29.4	24.0	29.4	76	22.8	5	13	270	0.00	29.820 
02:50	29.4	23.1	29.4	75	22.5	6	13	270	0.00	29.820 
02:55	29.4	24.0	29.4	76	22.8	5	12	248	0.00	29.820 
03:00	29.4	23.1	29.4	76	22.8	6	13	248	0.00	29.817 
03:05	29.4	25.1	29.4	76	22.8	4	10	270	0.00	29.817 
03:10	29.4	24.0	29.4	76	22.8	5	12	248	0.00	29.817 
03:15	29.4	24.0	29.4	76	22.8	5	12	248	0.00	29.812 
03:20	29.4	25.1	29.4	76	22.8	4	12	248	0.00	29.812 
03:25	29.4	25.1	29.4	76	22.8	4	11	248	0.00	29.812 
03:30	29.4	24.0	29.4	76	22.8	5	12	270	0.00	29.799 
03:35	29.4	25.1	29.4	76	22.8	4	16	248	0.00	29.799 
03:40	29.4	24.0	29.4	76	22.8	5	11	248	0.00	29.799 
03:45	29.4	25.1	29.4	76	22.8	4	10	248	0.00	29.797 
03:50	29.4	24.0	29.4	76	22.8	5	15	248	0.00	29.797 
03:55	29.4	25.1	29.4	76	22.8	4	10	248	0.00	29.797 
04:00	29.4	24.0	29.4	76	22.8	5	16	248	0.00	29.790 
04:05	29.4	25.1	29.4	76	22.8	4	10	248	0.00	29.790 
04:10	29.4	24.0	29.4	76	22.8	5	11	248	0.00	29.790 
04:15	29.4	25.1	29.4	76	22.8	4	10	248	0.00	29.782 
04:20	29.4	23.1	29.4	76	22.8	6	14	248	0.00	29.782 
04:25	29.4	25.1	29.4	77	23.1	4	10	270	0.00	29.782 
04:30	29.4	25.1	29.4	77	23.1	4	11	248	0.00	29.780 
04:35	29.4	23.1	29.4	77	23.1	6	11	248	0.00	29.780 
04:40	29.5	24.1	29.5	76	22.9	5	14	248	0.00	29.780 
04:45	29.5	23.3	29.5	77	23.2	6	13	248	0.00	29.768 
04:50	29.5	24.1	29.5	77	23.2	5	13	248	0.00	29.768 
04:55	29.5	25.2	29.5	77	23.2	4	12	248	0.00	29.768 
05:00	29.5	25.2	29.5	77	23.2	4	17	248	0.00	29.765 
05:05	29.5	24.1	29.5	77	23.2	5	13	248	0.00	29.765 
05:10	29.7	24.4	29.7	77	23.4	5	10	248	0.00	29.765 
05:15	29.8	23.6	29.8	76	23.2	6	14	270	0.00	29.762 
05:20	30.0	25.8	30.0	76	23.4	4	12	248	0.00	29.762 
05:25	30.0	25.8	30.0	76	23.4	4	11	248	0.00	29.762 
05:30	30.1	25.9	30.1	76	23.5	4	12	270	0.00	29.756 
05:35	30.3	25.1	30.3	75	23.3	5	13	248	0.00	29.756 
05:40	30.3	26.1	30.3	76	23.7	4	11	248	0.00	29.756 
05:45	30.3	25.1	30.3	76	23.7	5	11	270	0.00	29.754 
05:50	30.3	26.1	30.3	76	23.7	4	10	248	0.00	29.754 
05:55	30.4	25.2	30.4	75	23.4	5	14	248	0.00	29.754 
06:00	30.4	25.2	30.4	75	23.4	5	14	270	0.00	29.754 
06:05	30.4	26.2	30.4	75	23.4	4	10	248	0.00	29.754 
06:10	30.4	26.2	30.4	75	23.4	4	13	248	0.00	29.754 
06:15	30.6	24.6	30.6	76	24.0	6	16	248	0.00	29.750 
06:20	30.6	26.5	30.6	76	24.0	4	8	270	0.00	29.750 
06:25	30.6	26.5	30.6	76	24.0	4	9	248	0.00	29.750 
06:30	30.6	25.4	30.6	76	24.0	5	13	248	0.00	29.749 
06:35	30.6	25.4	30.6	76	24.0	5	10	270	0.00	29.749 
06:40	30.6	26.5	30.6	76	24.0	4	9	248	0.00	29.749 
06:45	30.6	25.4	30.6	76	24.0	5	10	248	0.00	29.747 
06:50	30.7	26.6	30.7	76	24.0	4	9	270	0.00	29.747 
06:55	30.7	26.6	30.7	76	24.0	4	13	248	0.00	29.747 
07:00	30.7	26.6	30.7	76	24.0	4	10	248	0.00	29.747 
07:05	30.7	30.7	30.7	73	23.1	3	10	248	0.00	29.747 
07:10	30.9	26.8	30.9	75	23.9	4	9	248	0.00	29.747 
07:15	30.9	26.8	30.9	76	24.2	4	10	248	0.00	29.749 
07:20	31.0	25.9	31.0	75	24.0	5	10	248	0.00	29.749 
07:25	31.0	31.0	31.0	75	24.0	3	7	248	0.00	29.749 
07:30	31.2	27.2	31.2	75	24.2	4	9	270	0.00	29.751 
07:35	31.2	26.1	31.2	75	24.2	5	10	248	0.00	29.751 
07:40	31.2	31.2	31.2	75	24.2	3	10	248	0.00	29.751 
07:45	31.2	31.2	31.2	75	24.2	3	7	248	0.00	29.753 
07:50	31.3	26.3	31.3	75	24.3	5	10	248	0.00	29.753 
07:55	31.3	31.3	31.3	75	24.3	3	7	248	0.00	29.753 
08:00	31.3	31.3	31.3	75	24.3	3	5	248	0.00	29.755 
08:05	31.3	31.3	31.3	75	24.3	3	7	248	0.00	29.755 
08:10	31.5	27.5	31.5	75	24.5	4	9	248	0.00	29.755 
08:15	31.5	27.5	31.5	75	24.5	4	11	248	0.00	29.755 
08:20	31.5	31.5	31.5	75	24.5	3	12	248	0.00	29.755 
08:25	31.5	26.5	31.5	75	24.5	5	12	248	0.00	29.755 
08:30	31.6	27.6	31.6	75	24.6	4	7	248	0.00	29.750 
08:35	31.6	26.6	31.6	75	24.6	5	14	270	0.00	29.750 
08:40	31.6	25.8	31.6	75	24.6	6	14	248	0.00	29.750 
08:45	31.8	26.8	31.8	75	24.8	5	11	248	0.00	29.750 
08:50	31.8	31.8	31.8	75	24.8	3	9	248	0.00	29.750 
08:55	31.8	27.8	31.8	75	24.8	4	12	248	0.00	29.750 
09:00	31.8	26.8	31.8	75	24.8	5	12	270	0.00	29.750 
09:05	31.8	31.8	31.8	75	24.8	3	7	248	0.00	29.750 
09:10	31.8	26.8	31.8	75	24.8	5	13	248	0.00	29.750 
09:15	31.9	26.1	31.9	75	24.9	6	12	248	0.00	29.754 
09:20	31.9	28.0	31.9	75	24.9	4	9	248	0.00	29.754 
09:25	31.9	28.0	31.9	75	24.9	4	11	248	0.00	29.754 
09:30	31.9	28.0	31.9	75	24.9	4	11	248	0.00	29.755 
09:35	32.1	28.2	32.1	75	25.1	4	12	248	0.00	29.755 
09:40	32.1	27.2	32.1	75	25.1	5	11	248	0.00	29.755 
09:45	32.1	32.1	32.1	75	25.1	3	7	248	0.00	29.757 
09:50	32.1	32.1	32.1	75	25.1	3	7	248	0.00	29.757 
09:55	32.1	28.2	32.1	75	25.1	4	10	248	0.00	29.757 
10:00	32.2	28.3	32.2	75	25.2	4	9	248	0.00	29.752 
10:05	32.2	32.2	32.2	75	25.2	3	7	270	0.00	29.752 
10:10	32.4	28.5	32.4	75	25.4	4	9	248	0.00	29.752 
10:15	32.4	28.5	32.4	75	25.4	4	10	270	0.00	29.749 
10:20	32.5	28.7	32.5	75	25.5	4	10	248	0.00	29.749 
10:25	32.5	28.7	32.5	74	25.2	4	11	248	0.00	29.749 
10:30	32.5	28.7	32.5	75	25.5	4	13	248	0.00	29.746 
10:35	32.7	27.9	32.7	75	25.7	5	12	248	0.00	29.746 
10:40	32.8	28.0	32.8	74	25.4	5	10	270	0.00	29.746 
10:45	32.9	29.1	32.9	74	25.5	4	7	248	0.00	29.740 
10:50	32.9	29.1	32.9	74	25.5	4	12	248	0.00	29.740 
10:55	32.9	29.1	32.9	74	25.5	4	10	270	0.00	29.740 
11:00	33.1	28.4	33.1	74	25.7	5	11	248	0.00	29.739 
11:05	33.1	29.3	33.1	74	25.7	4	10	270	0.00	29.739 
11:10	33.1	29.3	33.1	74	25.7	4	10	248	0.00	29.739 
11:15	33.2	29.5	33.2	74	25.8	4	7	248	0.00	29.729 
11:20	33.4	29.7	33.4	74	26.0	4	12	248	0.00	29.729 
11:25	33.4	27.2	33.4	73	25.7	7	12	248	0.00	29.729 
11:30	33.4	28.7	33.4	73	25.7	5	11	270	0.00	29.721 
11:35	33.5	28.8	33.5	73	25.8	5	12	248	0.00	29.721 
11:40	33.7	29.1	33.7	74	26.3	5	11	248	0.00	29.721 
11:45	33.8	29.2	33.8	73	26.1	5	12	248	0.00	29.716 
11:50	33.8	28.4	33.8	73	26.1	6	13	248	0.00	29.716 
11:55	34.0	30.4	34.0	73	26.3	4	9	248	0.00	29.716 
12:00	34.1	34.1	34.1	73	26.4	3	11	248	0.00	29.709 
12:05	34.1	29.5	34.1	73	26.4	5	12	248	0.00	29.709 
12:10	34.1	30.5	34.1	73	26.4	4	11	248	0.00	29.709 
12:15	34.3	29.8	34.3	73	26.6	5	9	270	0.00	29.701 
12:20	34.3	29.8	34.3	73	26.6	5	12	270	0.00	29.701 
12:25	34.3	29.8	34.3	73	26.6	5	12	248	0.00	29.701 
12:30	34.6	34.6	34.6	73	26.9	3	7	270	0.00	29.704 
12:35	34.6	34.6	34.6	73	26.9	3	10	248	0.00	29.704 
12:40	34.6	29.3	34.6	73	26.9	6	14	270	0.00	29.704 
12:45	34.6	29.3	34.6	74	27.2	6	12	248	0.00	29.696 
12:50	34.6	29.3	34.6	73	26.9	6	14	270	0.00	29.696 
12:55	34.9	30.5	34.9	73	27.1	5	8	248	0.00	29.696 
13:00	35.0	35.0	35.0	73	27.2	3	10	248	0.00	29.687 
13:05	35.0	30.6	35.0	73	27.2	5	15	270	0.00	29.687 
13:10	35.0	31.5	35.0	73	27.2	4	10	270	0.00	29.687 
13:15	35.2	30.0	35.2	73	27.4	6	16	270	0.00	29.681 
13:20	35.2	30.0	35.2	73	27.4	6	15	248	0.00	29.681 
13:25	35.2	30.8	35.2	73	27.4	5	15	270	0.00	29.681 
13:30	35.3	31.0	35.3	73	27.5	5	13	270	0.00	29.685 
13:35	35.3	31.9	35.3	74	27.9	4	10	270	0.00	29.685 
13:40	35.5	31.2	35.5	74	28.0	5	13	270	0.00	29.685 
13:45	35.5	31.2	35.5	73	27.7	5	16	270	0.00	29.681 
13:50	35.6	30.5	35.6	73	27.8	6	12	270	0.00	29.681 
13:55	35.6	29.8	35.6	73	27.8	7	19	270	0.00	29.681 
14:00	35.6	31.3	35.6	74	28.1	5	14	270	0.00	29.681 
14:05	35.6	31.3	35.6	74	28.1	5	11	270	0.00	29.681 
14:10	35.6	32.2	35.6	74	28.1	4	12	270	0.00	29.681 
14:15	35.6	32.2	35.6	74	28.1	4	10	270	0.00	29.683 
14:20	35.6	32.2	35.6	74	28.1	4	12	270	0.00	29.683 
14:25	35.6	31.3	35.6	74	28.1	5	14	270	0.00	29.683 
14:30	35.8	35.8	35.8	74	28.3	3	10	248	0.00	29.682 
14:35	35.8	35.8	35.8	75	28.7	3	11	270	0.00	29.682 
14:40	35.9	35.9	35.9	75	28.8	2	7	270	0.00	29.682 
14:45	35.9	35.9	35.9	74	28.4	3	11	270	0.00	29.684 
14:50	35.9	35.9	35.9	75	28.8	3	7	248	0.00	29.684 
14:55	35.9	32.6	35.9	74	28.4	4	13	248	0.00	29.684 
15:00	36.0	32.7	36.0	75	28.9	4	10	270	0.00	29.697 
15:05	36.0	36.0	36.0	75	28.9	3	6	248	0.00	29.697 
15:10	36.2	32.9	36.2	75	29.1	4	13	248	0.00	29.697 
15:15	36.2	36.2	36.2	75	29.1	3	7	270	0.00	29.699 
15:20	36.3	33.0	36.3	75	29.1	4	9	270	0.00	29.699 
15:25	36.3	33.0	36.3	75	29.1	4	13	270	0.00	29.699 
15:30	36.2	32.9	36.2	75	29.1	4	11	270	0.00	29.711 
15:35	36.2	32.9	36.2	75	29.1	4	9	270	0.00	29.711 
15:40	36.3	33.0	36.3	75	29.1	4	10	270	0.00	29.711 
15:45	36.3	33.0	36.3	75	29.1	4	10	270	0.00	29.714 
15:50	36.3	36.3	36.3	76	29.5	3	9	270	0.00	29.714 
15:55	36.3	36.3	36.3	76	29.5	3	9	270	0.00	29.714 
16:00	36.3	36.3	36.3	76	29.5	3	6	248	0.00	29.720 
16:05	36.3	36.3	36.3	76	29.5	2	7	248	0.00	29.720 
16:10	36.3	36.3	36.3	76	29.5	2	6	248	0.00	29.720 
16:15	36.3	36.3	36.3	76	29.5	2	4	270	0.00	29.723 
16:20	36.3	36.3	36.3	76	29.5	2	5	270	0.00	29.723 
16:25	36.3	36.3	36.3	76	29.5	2	4	270	0.00	29.723 
16:30	36.3	36.3	36.3	76	29.5	2	5	270	0.00	29.726 
16:35	36.3	36.3	36.3	76	29.5	2	5	248	0.00	29.726 
16:40	36.3	36.3	36.3	76	29.5	2	4	270	0.00	29.726 
16:45	36.3	36.3	36.3	76	29.5	2	4	248	0.00	29.733 
16:50	36.3	36.3	36.3	77	29.8	2	5	248	0.00	29.733 
16:55	36.3	36.3	36.3	76	29.5	2	4	270	0.00	29.733 
17:00	36.3	36.3	36.3	76	29.5	2	5	248	0.00	29.738 
17:05	36.3	36.3	36.3	77	29.8	2	4	248	0.00	29.738 
17:10	36.3	36.3	36.3	76	29.5	2	4	248	0.00	29.738 
17:15	36.3	36.3	36.3	77	29.8	1	2	248	0.00	29.744 
17:20	36.2	36.2	36.2	76	29.4	2	4	270	0.00	29.744 
17:25	36.2	36.2	36.2	77	29.7	1	3	270	0.00	29.744 
17:30	36.2	36.2	36.2	76	29.4	1	4	248	0.00	29.749 
17:35	36.2	36.2	36.2	76	29.4	1	3	292	0.00	29.749 
17:40	36.0	36.0	36.0	76	29.2	1	3	270	0.00	29.749 
17:45	36.0	36.0	36.0	76	29.2	1	2	270	0.00	29.752 
17:50	35.9	35.9	35.9	77	29.4	1	2	270	0.00	29.752 
17:55	35.9	35.9	35.9	77	29.4	1	2	248	0.00	29.752 
18:00	35.9	35.9	35.9	76	29.1	1	2	248	0.00	29.760 
18:05	35.8	35.8	35.8	77	29.3	0	2	248	0.00	29.760 
18:10	35.8	35.8	35.8	76	29.0	1	3	248	0.00	29.760 
18:15	35.8	35.8	35.8	76	29.0	1	3	270	0.00	29.773 
18:20	35.8	35.8	35.8	76	29.0	1	2	248	0.00	29.773 
18:25	35.8	35.8	35.8	76	29.0	1	2	248	0.00	29.773 
18:30	35.8	35.8	35.8	77	29.3	0	1	248	0.00	29.774 
18:35	35.8	35.8	35.8	76	29.0	1	2	248	0.00	29.774 
18:40	35.8	35.8	35.8	76	29.0	0	1	248	0.00	29.774 
18:45	35.8	35.8	35.8	76	29.0	0	2	248	0.00	29.786 
18:50	35.8	35.8	35.8	77	29.3	0	1	248	0.00	29.786 
18:55	35.8	35.8	35.8	77	29.3	0	1	248	0.00	29.786 
19:00	35.8	35.8	35.8	76	29.0	0	2	248	0.00	29.789 
19:05	35.8	35.8	35.8	76	29.0	0	2	248	0.00	29.789 
19:10	35.8	35.8	35.8	76	29.0	0	1	248	0.00	29.789 
19:15	35.6	35.6	35.6	76	28.8	0	1	248	0.00	29.790 
19:20	35.8	35.8	35.8	76	29.0	0	2	248	0.00	29.790 
19:25	35.8	35.8	35.8	76	29.0	1	2	248	0.00	29.790 
19:30	35.8	35.8	35.8	76	29.0	0	1	248	0.00	29.796 
19:35	35.8	35.8	35.8	76	29.0	0	1	248	0.00	29.796 
19:40	35.6	35.6	35.6	77	29.1	0	1	248	0.00	29.796 
19:45	35.6	35.6	35.6	76	28.8	0	1	248	0.00	29.802 
19:50	35.8	35.8	35.8	76	29.0	0	2	248	0.00	29.802 
19:55	35.8	35.8	35.8	76	29.0	0	1	248	0.00	29.802 
20:00	35.8	35.8	35.8	76	29.0	0	1	248	0.00	29.805 
20:05	35.8	35.8	35.8	76	29.0	0	1	248	0.00	29.805 
20:10	35.8	35.8	35.8	76	29.0	0	2	248	0.00	29.805 
20:15	35.8	35.8	35.8	76	29.0	0	1	248	0.00	29.805 
20:20	35.8	35.8	35.8	76	29.0	0	2	248	0.00	29.805 
20:25	35.8	35.8	35.8	76	29.0	0	1	248	0.00	29.805 
20:30	35.8	35.8	35.8	76	29.0	0	1	248	0.00	29.809 
20:35	35.8	35.8	35.8	76	29.0	0	1	248	0.00	29.809 
20:40	35.8	35.8	35.8	77	29.3	0	1	248	0.00	29.809 
20:45	35.8	35.8	35.8	76	29.0	0	1	248	0.00	29.804 
20:50	35.8	35.8	35.8	76	29.0	0	1	248	0.00	29.804 
20:55	35.8	35.8	35.8	76	29.0	1	2	248	0.00	29.804 
21:00	35.9	35.9	35.9	76	29.1	1	2	248	0.00	29.806 
21:05	35.9	35.9	35.9	76	29.1	1	2	248	0.00	29.806 
21:10	36.0	36.0	36.0	75	28.9	1	2	248	0.00	29.806 
21:15	36.0	36.0	36.0	75	28.9	1	2	248	0.00	29.807 
21:20	36.0	36.0	36.0	75	28.9	1	3	248	0.00	29.807 
21:25	36.2	36.2	36.2	75	29.1	0	1	248	0.00	29.807 
21:30	36.2	36.2	36.2	75	29.1	0	2	248	0.00	29.812 
21:35	36.2	36.2	36.2	75	29.1	1	2	248	0.00	29.812 
21:40	36.2	36.2	36.2	75	29.1	0	2	248	0.00	29.812 
21:45	36.3	36.3	36.3	75	29.1	1	2	248	0.00	29.814 
21:50	36.3	36.3	36.3	75	29.1	1	3	248	0.00	29.814 
21:55	36.5	36.5	36.5	75	29.3	0	2	248	0.00	29.814 
22:00	36.5	36.5	36.5	75	29.3	1	3	248	0.00	29.816 
22:05	36.5	36.5	36.5	75	29.3	1	2	248	0.00	29.816 
22:10	36.6	36.6	36.6	75	29.4	1	3	270	0.00	29.816 
22:15	36.6	36.6	36.6	75	29.4	0	1	270	0.00	29.813 
22:20	36.6	36.6	36.6	75	29.4	0	1	270	0.00	29.813 
22:25	36.6	36.6	36.6	75	29.4	0	1	270	0.00	29.813 
22:30	36.6	36.6	36.6	75	29.4	0	2	270	0.00	29.811 
22:35	36.6	36.6	36.6	75	29.4	0	1	270	0.00	29.811 
22:40	36.6	36.6	36.6	75	29.4	0	2	270	0.00	29.811 
22:45	36.8	36.8	36.8	74	29.3	0	1	270	0.00	29.818 
22:50	36.8	36.8	36.8	74	29.3	0	1	270	0.00	29.818 
22:55	36.8	36.8	36.8	74	29.3	0	1	270	0.00	29.818 
23:00	36.8	36.8	36.8	74	29.3	0	2	270	0.00	29.822 
23:05	36.8	36.8	36.8	74	29.3	0	1	270	0.00	29.822 
23:10	36.8	36.8	36.8	74	29.3	0	1	270	0.00	29.822 
23:15	36.8	36.8	36.8	74	29.3	0	1	270	0.00	29.820 
23:20	36.8	36.8	36.8	74	29.3	0	1	270	0.00	29.820 
23:25	36.6	36.6	36.6	74	29.1	0	1	270	0.00	29.820 
23:30	36.6	36.6	36.6	74	29.1	0	2	270	0.00	29.825 
23:35	36.6	36.6	36.6	74	29.1	0	1	270	0.00	29.825 
23:40	36.6	36.6	36.6	75	29.4	0	2	270	0.00	29.825 
23:45	36.5	36.5	36.5	74	29.0	0	2	270	0.00	29.829 
23:50	36.5	36.5	36.5	75	29.3	0	2	270	0.00	29.829 
23:55	36.5	36.5	36.5	75	29.3	0	1	270	0.00	29.829 

CoCoRaHS
IN-AL-39
A2 Web Hosting
Creative Commons License
GoDaddy
Look for:

loaded 2017-12-11 22:00:39 • last modified 2010-11-18 10:43:29
Privacy PolicyDisclaimer
• wx.awcolley.com is powered by PmWiki v.2002016 •
• all content (unless otherwise noted) © 2017 A W Colley